Find Starlink 38219

NORAD ID: 100215 Int'l Des: 2026-177 Owner: SPXS Country: US Constellation: starlink operational

現在のビュー

3D地球を読み込み中...

About Starlink 38219

Starlink 38219 (NORAD 100215) is a starlink constellation satellite launched Aug 4, 2026 by SPXS of US. with a mass of 575.00 kg.

次回通過

Passes for default location (London). Set your location on the main map for personalized predictions.

高度履歴

Loading altitude history...

軌道要素

1 A0215U 26177C 26235.59226294 .00139725 00000-0 92091-3 0 9999
2 A0215 97.2830 285.4161 0000552 83.8090 276.3238 15.75227585 4121
Epoch: Aug 23, 2026 • Age: 11 hours

現在のステータス

高度 355.1 km
遠地点 / 近地点 N/A
速度 7.69 km/s
衛星直下点 -29.80°S, 53.66°W
打ち上げ日 Aug 4, 2026
運用期間 19 days
タイプ internet

技術仕様

分類 Payload
質量 575.00 kg
乾燥質量 530.00 kg
総質量 575.00 kg
長さ 0.30 m
直径 4.10 m
スパン 29.00 m
形状 Box + pan
製造者 SPXS
バスタイプ Starlink V2MO
フェーズステータス In Orbit
所有者/国 SPXS/US

Most Searched